This is the latest recevied weather packets stored in our database for station/object LZ0VRC-10. If no packets are shown the sender has not sent any weather packets the latest 1 day(s).
| Time | Temp. | Humidity | Pressure | Rain* | Wind** | Luminosity | Snow |
|---|---|---|---|---|---|---|---|
| 1777844109 | 6.11° C | 59% | 1021.1 hPa | - | - | - | - |
| 1777844104 | 6.11° C | 59% | 1021.1 hPa | - | - | - | - |
| 1777843204 | 6.11° C | 60% | 1021 hPa | - | - | - | - |
| 1777842309 | 6.67° C | 59% | 1021 hPa | - | - | - | - |
| 1777842304 | 6.67° C | 59% | 1021 hPa | - | - | - | - |
| 1777841409 | 6.67° C | 56% | 1021 hPa | - | - | - | - |
| 1777841404 | 6.67° C | 56% | 1021 hPa | - | - | - | - |
| 1777840504 | 6.67° C | 58% | 1021.2 hPa | - | - | - | - |
| 1777839609 | 6.67° C | 58% | 1021.4 hPa | - | - | - | - |
| 1777839604 | 6.67° C | 58% | 1021.4 hPa | - | - | - | - |
| 1777838704 | 7.22° C | 57% | 1021.5 hPa | - | - | - | - |
| 1777837809 | 6.67° C | 60% | 1021.6 hPa | - | - | - | - |
| 1777837804 | 6.67° C | 60% | 1021.6 hPa | - | - | - | - |
| 1777836904 | 6.67° C | 60% | 1021.6 hPa | - | - | - | - |
| 1777836004 | 6.67° C | 61% | 1021.5 hPa | - | - | - | - |
| 1777835104 | 6.67° C | 63% | 1021.4 hPa | - | - | - | - |
| 1777834209 | 7.22° C | 59% | 1021.3 hPa | - | - | - | - |
| 1777834204 | 7.22° C | 59% | 1021.3 hPa | - | - | - | - |
| 1777833304 | 7.22° C | 58% | 1021.3 hPa | - | - | - | - |
| 1777832409 | 7.78° C | 58% | 1021.2 hPa | - | - | - | - |
| 1777832404 | 7.78° C | 58% | 1021.2 hPa | - | - | - | - |
| 1777831509 | 7.78° C | 57% | 1021.2 hPa | - | - | - | - |
| 1777831504 | 7.78° C | 57% | 1021.2 hPa | - | - | - | - |
| 1777830604 | 8.33° C | 54% | 1021.2 hPa | - | - | - | - |
| 1777829709 | 8.33° C | 52% | 1021.3 hPa | - | - | - | - |
* Rain since midnight (hover to see other rain measurements)
** Current wind speed in m/s (hover to see current wind gust speed)